Location: The Saddle
(36.8333°N, 80.3417°W)
Time: 05:25:52
(UTC-04:00)

Tiangong - Visible Passes

Search period start: 08 May 2026 00:00
Search period end: 18 May 2026 00:00
Orbit: 374 x 381 km, 41.5° (Epoch: 8 May)

Date Brightness Start Highest point End Pass type
(mag) Time Alt. Az. Time Alt. Az. Time Alt. Az.
8 May 1.1 03:31:17 12° ENE 03:31:17 12° ENE 03:31:36 10° ENE visible
8 May -0.9 05:03:20 17° WNW 05:05:19 37° N 05:08:15 10° ENE visible
9 May -0.6 04:04:06 36° NE 04:04:06 36° NE 04:06:19 10° ENE visible
9 May -0.6 05:37:25 10° WNW 05:40:17 33° N 05:43:10 10° ENE visible
10 May -0.7 04:36:55 23° NW 04:38:10 33° N 04:41:03 10° ENE visible
11 May 0.5 03:37:40 21° NE 03:37:40 21° NE 03:38:58 10° ENE visible
11 May -0.7 05:10:09 10° WNW 05:13:04 36° N 05:16:00 10° ENE visible
12 May -0.7 04:10:31 31° NNW 04:10:52 32° N 04:13:44 10° ENE visible
12 May -1.8 05:44:43 10° WNW 05:47:49 66° NNE 05:50:55 10° ESE visible
13 May 1.3 03:11:22 11° ENE 03:11:22 11° ENE 03:11:31 10° ENE visible
13 May -1.1 04:43:26 16° WNW 04:45:40 44° NNE 04:48:40 10° E visible
14 May 0.0 03:44:26 27° NE 03:44:26 27° NE 03:46:19 10° ENE visible
14 May -2.3 05:17:08 10° WNW 05:20:15 80° SSW 05:23:22 10° ESE visible
15 May -1.8 04:17:44 56° NNW 04:18:04 61° NNE 04:21:08 10° E visible
16 May -2.0 04:51:24 31° W 04:52:28 47° SSW 04:55:28 10° SE visible
17 May -0.4 05:25:35 13° WSW 05:26:35 15° SW 05:28:26 10° S visible
17 May 0.4 21:54:53 10° SSW 21:55:03 11° SSW 21:55:03 11° SSW visible
